Weather History for Antalya, Turkey

Change the Weather History Date:

Tuesday, February 5, 2013

  Actual Average Record
Temperature  
Mean Temperature 56 °F -  
Max Temperature 70 °F 60 °F 70 °F (2013)
Min Temperature 43 °F 44 °F 28 °F (1997)
Degree Days  
Heating Degree Days 8    
Growing Degree Days 6 (Base 50)    
Moisture  
Dew Point 44 °F    
Average Humidity 69    
Maximum Humidity 100    
Minimum Humidity 24    
Precipitation  
Precipitation 0.00 in 0.23 in - ()
Sea Level Pressure  
Sea Level Pressure 29.98 in    
Wind  
Wind Speed 6 mph ()    
Max Wind Speed 9 mph    
Max Gust Speed -    
Visibility 6.0 miles    
Events      
Averages and records for this station are not official NWS values.
T = Trace of Precipitation, MM = Missing Value Source: Averaged Metar Reports

Daily Weather History Graph

Daily Weather History Graph

Search for Another Location

Airport:

Trip Planner

Search our weather history database for the weather conditions in past years. The results will help you decide how hot, cold, wet, or windy it might be!

Date:

Astronomy

Feb. 05, 2013 Rise Set
Actual Time 6:55 AM EET 5:26 PM EET
Civil Twilight 6:28 AM EET 5:53 PM EET
Nautical Twilight 5:57 AM EET 6:24 PM EET
Astronomical Twilight 5:27 AM EET 6:54 PM EET
Moon 2:13 AM EET (2/5) 12:27 PM EET (2/5)
Length of Visible Light 11h 24m
Length of Day
10h 30m
Waning Crescent, 30% of the Moon is Illuminated
Feb 5
Waning Crescent
Feb 10
New
Feb 17
First Quarter
Feb 25
Full
Mar 4
Last Quarter

Hourly Weather History & Observations

Time (EET) Temp. Windchill Dew Point Humidity Pressure Visibility Wind Dir Wind Speed Gust Speed Precip Events Conditions
12:20 AM 50.0 °F - 48.2 °F 94% 30.12 in 3.7 mi NNW 5.8 mph - N/A   Scattered Clouds
12:50 AM 50.0 °F - 48.2 °F 94% 30.12 in 5.0 mi North 5.8 mph - N/A   Scattered Clouds
1:20 AM 50.0 °F - 48.2 °F 94% 30.09 in 5.0 mi North 5.8 mph - N/A   Partly Cloudy
1:50 AM 48.2 °F - 48.2 °F 100% 30.09 in 6.2 mi NW 5.8 mph - N/A   Partly Cloudy
2:00 AM 49 °F - 47 °F 92% 30.10 in 6 mi NW 5.8 mph - -   Scattered Clouds
2:20 AM 48.2 °F - 46.4 °F 93% 30.09 in 6.2 mi NNW 5.8 mph - N/A   Partly Cloudy
2:50 AM 48.2 °F - 46.4 °F 93% 30.09 in 6.2 mi NW 6.9 mph - N/A   Partly Cloudy
3:20 AM 48.2 °F - 46.4 °F 93% 30.09 in 6.2 mi NNW 6.9 mph - N/A   Partly Cloudy
3:50 AM 46.4 °F 42.9 °F 44.6 °F 93% 30.06 in 6.2 mi NNW 6.9 mph - N/A   Partly Cloudy
4:20 AM 46.4 °F 43.5 °F 44.6 °F 93% 30.06 in 6.2 mi NW 5.8 mph - N/A   Partly Cloudy
4:50 AM 46.4 °F 43.5 °F 44.6 °F 93% 30.06 in 6.2 mi NNW 5.8 mph - N/A   Partly Cloudy
5:20 AM 46.4 °F 43.5 °F 44.6 °F 93% 30.06 in 6.2 mi North 5.8 mph - N/A   Partly Cloudy
5:50 AM 46.4 °F 41.9 °F 42.8 °F 87% 30.06 in 6.2 mi North 9.2 mph - N/A   Partly Cloudy
6:20 AM 46.4 °F 41.9 °F 42.8 °F 87% 30.06 in 6.2 mi NNW 9.2 mph - N/A   Partly Cloudy
6:50 AM 44.6 °F 39.7 °F 41.0 °F 87% 30.06 in 6.2 mi NNW 9.2 mph - N/A   Partly Cloudy
7:20 AM 46.4 °F 42.9 °F 41.0 °F 81% 30.06 in 6.2 mi NNW 6.9 mph - N/A   Partly Cloudy
7:50 AM 50.0 °F - 42.8 °F 76% 30.06 in - NW 8.1 mph - N/A   Clear
8:00 AM 49 °F - 43 °F 72% 30.06 in 12 mi NW 8.1 mph - -  
8:20 AM 50.0 °F - 42.8 °F 76% 30.06 in - North 6.9 mph - N/A   Clear
8:50 AM 51.8 °F - 44.6 °F 76% 30.06 in - North 6.9 mph - N/A   Clear
9:20 AM 55.4 °F - 46.4 °F 72% 30.06 in - North 9.2 mph - N/A   Clear
9:50 AM 59.0 °F - 44.6 °F 59% 30.04 in - NNW 9.2 mph - N/A   Clear
10:20 AM 60.8 °F - 44.6 °F 55% 30.04 in 6.2 mi NNW 9.2 mph - N/A   Partly Cloudy
10:50 AM 62.6 °F - 46.4 °F 55% 30.04 in 6.2 mi NNW 6.9 mph - N/A   Partly Cloudy
11:20 AM 64.4 °F - 44.6 °F 49% 30.01 in 6.2 mi NW 6.9 mph - N/A   Partly Cloudy
11:50 AM 66.2 °F - 42.8 °F 43% 30.01 in 6.2 mi WNW 4.6 mph - N/A   Partly Cloudy
12:20 PM 66.2 °F - 42.8 °F 43% 29.98 in - NW 4.6 mph - N/A   Clear
12:50 PM 66.2 °F - 42.8 °F 43% 29.95 in - North 4.6 mph - N/A   Clear
1:20 PM 68.0 °F - 41.0 °F 37% 29.95 in - WNW 4.6 mph - N/A   Clear
1:50 PM 68.0 °F - 39.2 °F 35% 29.95 in - Variable 3.5 mph - N/A   Clear
2:00 PM 67 °F - 39 °F 24% 29.93 in 6 mi NNE 3.5 mph - -  
2:20 PM 68.0 °F - 37.4 °F 33% 29.92 in - SW 6.9 mph - N/A   Clear
2:50 PM 68.0 °F - 39.2 °F 35% 29.92 in - SSW 5.8 mph - N/A   Clear
3:20 PM 66.2 °F - 37.4 °F 35% 29.92 in - SW 9.2 mph - N/A   Clear
3:50 PM 66.2 °F - 39.2 °F 37% 29.92 in - SSW 8.1 mph - N/A   Clear
4:20 PM 64.4 °F - 39.2 °F 40% 29.92 in - SSW 6.9 mph - N/A   Clear
4:50 PM 62.6 °F - 41.0 °F 45% 29.89 in - SSW 6.9 mph - N/A   Clear
5:20 PM 59.0 °F - 42.8 °F 55% 29.89 in - SW 3.5 mph - N/A   Clear
5:50 PM 57.2 °F - 44.6 °F 63% 29.89 in - Variable 1.2 mph - N/A   Clear
6:20 PM 55.4 °F - 46.4 °F 72% 29.89 in - Variable 1.2 mph - N/A   Clear
6:50 PM 55.4 °F - 46.4 °F 72% 29.89 in - Variable 2.3 mph - N/A   Clear
7:20 PM 53.6 °F - 46.4 °F 77% 29.89 in - NNW 3.5 mph - N/A   Clear
7:50 PM 51.8 °F - 46.4 °F 82% 29.89 in - WNW 3.5 mph - N/A   Clear
8:00 PM 52 °F - 46 °F 72% 29.87 in 6 mi WNW 3.5 mph - -   Clear
8:20 PM 51.8 °F - 44.6 °F 76% 29.89 in 4.3 mi North 4.6 mph - N/A   Scattered Clouds
8:50 PM 53.6 °F - 44.6 °F 72% 29.89 in 3.7 mi NNE 4.6 mph - N/A   Scattered Clouds
9:20 PM 53.6 °F - 44.6 °F 72% 29.86 in 3.7 mi North 4.6 mph - N/A   Scattered Clouds
9:50 PM 51.8 °F - 44.6 °F 76% 29.86 in 6.2 mi NNW 5.8 mph - N/A   Scattered Clouds
10:20 PM 51.8 °F - 42.8 °F 71% 29.86 in 6.2 mi NNW 5.8 mph - N/A   Scattered Clouds
10:50 PM 51.8 °F - 42.8 °F 71% 29.86 in 6.2 mi NNW 4.6 mph - N/A   Scattered Clouds
11:20 PM 50.0 °F - 42.8 °F 76% 29.86 in 6.2 mi NNW 6.9 mph - N/A   Mostly Cloudy
11:50 PM 50.0 °F - 42.8 °F 76% 29.86 in 6.2 mi NNW 4.6 mph - N/A   Mostly Cloudy